Regional Weather Roundup
Issued by NWS

Home | Current Version | Previous Version | Text Only | Print | Product List | Glossary Off
Versions: 1 2 3 4 5 6 7 8 9 10 11 12 13 14 15 16 17 18 19 20 21 22 23 24 25 26 27 28 29 30 31 32 33 34 35 36 37 38 39 40 41 42 43 44 45 46 47 48 49 50

000
ASUS43 KDTX 121901
RWRMI
MICHIGAN HOURLY REGIONAL WEATHER ROUNDUP
NATIONAL WEATHER SERVICE DETROIT/PONTIAC MI
200 PM EST FRI FEB 12 2016

NOTE: "FAIR" INDICATES FEW OR NO CLOUDS BELOW 12,000 FEET WITH NO
SIGNIFICANT WEATHER AND/OR OBSTRUCTION TO VISIBILITY.

MIZ047>049-052>055-059>063-066>070-074>076-081>083-122000-
SOUTHEAST LOWER MICHIGAN

CITY           SKY/WX    TMP DP  RH WIND       PRES   REMARKS
ADRIAN         LGT SNOW  23  15  71 W15       29.97F WCI  10
ALMA           CLOUDY    22   5  48 W18G26    29.97S WCI   8
ANN ARBOR      FLURRIES  23  16  74 W13       29.93F WCI  11
BAD AXE        CLOUDY    21   7  54 W12G20    29.90S WCI   9
CARO           MOSUNNY   21   9  58 W16       29.92F WCI   7
DETROIT CITY   CLOUDY    24  12  60 W16G22    29.93F WCI  11
DETROIT        FLURRIES  25  14  63 W16G24    29.95F WCI  12
FLINT          SNOW      21  14  74 NW16      29.94S VSB 1/2 WCI   7
GROSSE ILE     LGT SNOW  23  18  80 SW8       29.94F WCI  14
HILLSDALE      LGT SNOW  21  17  81 W13G18    29.94F VSB 1   WCI   9
HOWELL         LGT SNOW  21  15  76 NW18      29.93S WCI   6

CITY           SKY/WX    TMP DP  RH WIND       PRES   REMARKS
JACKSON        SNOW      20  14  77 NW16G25   29.95S VSB 1/2 WCI   6
LAMBERTVILLE   LGT SNOW  24  16  71 W13G20    29.98F WCI  12
LANSING        MIX PCPN  21   8  57 W21G29    29.97S WCI   5
LAPEER         LGT SNOW  20  14  77 NW13G18   29.91F WCI   7
MASON          LGT SNOW  20  13  76 W18G24    29.95F WCI   5
MONROE         LGT SNOW  24  17  74 W15       29.96F WCI  11
MT. CLEMENS    LGT SNOW  24  16  73 SW13G20   29.90F WCI  12
PONTIAC        PTSUNNY   20  14  77 W17       29.90F HAZE    WCI   5
PORT HOPE        N/A     22   7  52 W15G23    29.88F WCI   9
PORT HURON     SNOW      21  16  79 W13G21    29.93S VSB 1/2 WCI   9
TRI CITIES     CLOUDY    21   5  50 W20G25    29.95S WCI   6
MIDLAND        CLOUDY    20   6  55 NW13G22   29.94S WCI   7
TROY           CLOUDY    26  13  57 W10G20    29.94F WCI  16
SAGINAW HB     CLOUDY    23  12  63 W17G23    29.94S HAZE    WCI   9
$$
MIZ043>046-050>051-056>058-064>065-071>073-077>080-122000-
SOUTHWEST LOWER MICHIGAN

CITY           SKY/WX    TMP DP  RH WIND       PRES   REMARKS
BATTLE CREEK   PTSUNNY   21  11  65 NW18      30.00F WCI   6
BENTON HARBOR  LGT SNOW  20  10  65 NW17G29   30.09F WCI   5
BIG RAPIDS     PTSUNNY   18   6  60 NW13G24   29.96S WCI   5
COLDWATER      LGT SNOW  22  17  79 W14G22    29.99S WCI   9
FREMONT        LGT SNOW  17  12  80 NW14G22   30.02S VSB 1   WCI   3
HOLLAND        LGT SNOW  20   9  62 NW17G26   30.05F WCI   5
GRAND RAPIDS   PTSUNNY   20   6  55 NW18G29   30.01S WCI   5
IONIA          FLURRIES  20   9  62 NW16G23   29.97F WCI   6
KALAMAZOO      LGT SNOW  20  12  71 NW18G30   30.02S VSB 1   WCI   5
LUDINGTON      LGT SNOW  17   7  65 NW17G25   30.05S WCI   1
MARSHALL       LGT SNOW  20  15  78 NW17G25   29.98S WCI   6
MOUNT PLEASANT PTSUNNY   24   6  44 NW12G26   29.95S WCI  13
MUSKEGON       LGT SNOW  19   9  65 NW16G26   30.05F WCI   4
SOUTH HAVEN    LGT SNOW  20  11  66 NW14G24   30.07S WCI   7
$$
MIZ016>042-122000-
NORTHERN LOWER MICHIGAN

CITY           SKY/WX    TMP DP  RH WIND       PRES   REMARKS
ALPENA         LGT SNOW  15   9  76 N14       29.90R WCI   0
BEAVER ISLAND  CLOUDY    12   0  59 NW21G30   30.03R HAZE    WCI  -7
BELLAIRE       SNOW      15  11  86 NW6       29.98R VSB 1/2 WCI   6
CADILLAC       LGT SNOW  16   8  68 NW16G28   29.92S VSB 1   WCI   1
CHARLEVOIX     CLOUDY    13   9  81 N23G32    30.02R WCI  -5
FRANKFORT      CLOUDY    17   1  48 N10G24    30.02S WCI   5
GRAYLING       LGT SNOW  16   8  70 NW18G24   29.90R WCI   0
HARBOR SPRINGS CLOUDY    13   3  64 N14G24    29.97R HAZE    WCI  -2
HOUGHTON LAKE  SNOW      14  10  84 NW16G32   29.91R VSB 1/4 WCI  -2
MANISTEE       CLOUDY    16   7  67 NW16G24   30.04R VSB 3/4 WCI   0
OSCODA         CLOUDY    19   7  61 W20G26    29.89R WCI   3
PELLSTON       BLWGSNOW  11   3  70 N17       29.99R VSB 3/4 WCI  -6
ROGERS CITY    CLOUDY    15   4  60 N17G25    29.93R HAZE    WCI  -1
TRAVERSE CITY  LGT SNOW  17   9  70 NW17G31   29.99R BLWGSNOWWCI   1
$$
MIZ007>008-015-122000-
EASTERN UPPER MICHIGAN

CITY           SKY/WX    TMP DP  RH WIND       PRES   REMARKS
KINROSS        CLOUDY     7   3  85 NW23      29.96R VSB 1/4 WCI -14
MACKINAC ISLAN PTSUNNY   12  -1  56 N18G29    29.97R WCI  -6
NEWBERRY       CLOUDY     5  -2  71 N13G22    30.02R HAZE    WCI -11
S. S. MARIE    LGT SNOW   6  -5  60 NW18G30   29.98R WCI -13
$$
MIZ004>006-011>014-085-122000-
CENTRAL UPPER MICHIGAN

CITY           SKY/WX    TMP DP  RH WIND       PRES   REMARKS
MANISTIQUE     PTSUNNY    8  -4  56 NW22G30   30.07R HAZE    WCI -12
ESCANABA       CLOUDY     9  -8  47 N12G29    30.12R WCI  -6
MENOMINEE      CLOUDY    12  -4  48 NW15G26   30.10R WCI  -4
SAWYER-GWINN   LGT SNOW   1  -8  66 N23G33    30.08R VSB 1   WCI -21
$$
MIZ001>003-009>011-084-122000-
WESTERN UPPER MICHIGAN

CITY           SKY/WX    TMP DP  RH WIND       PRES   REMARKS
IRON MOUNTAIN  HVY SNOW   5  -3  69 N24G35    30.10R VSB 1/4 WCI -17
HOUGHTON       HVY SNOW  -2  -9  72 NW20G26   30.19R VSB 1/4 WCI -24
COPPER HARBOR    N/A      2  -2  83 N30G38    30.21R WCI -23
IRONWOOD       CLOUDY     0  -6  78 NW18G26   30.24R VSB 1/4 WCI -22
$$

ABBREVIATIONS USED IN REMARKS
   TC - TEMPERATURE IN CELSIUS
  WCI - WIND CHILL INDEX
   HX - HEAT INDEX
  VSB - VISIBILITY




USA.gov is the U.S. government's official web portal to all federal, state and local government web resources and services.